Tracking 23099 objects as of 13-May-2021
HD Live streaming from Space Station
objects crossing your sky now

STARLINK-1988

Track STARLINK-1988 now!
10-day predictions
STARLINK-1988 is classified as:


NORAD ID: 47584
Int'l Code: 2021-009AN
Perigee: 384.0 km
Apogee: 389.6 km
Inclination: 53.1 °
Period: 92.1 minutes
Semi major axis: 6757 km
RCS: Unknown
Launch date: February 4, 2021
Source: United States (US)
Launch site: AIR FORCE EASTERN TEST RANGE (AFETR)
aabbcc
Your satellite tracking list
Your tracking list is empty




NASA's NSSDC Master Catalog

Two Line Element Set (TLE):
1 47584U 21009AN  21132.91668981  .00053512  00000-0  58610-3 0  9996
2 47584  53.0536   5.9121 0004128   3.3916 158.7270 15.62759718  1773
Source of the keplerian elements: AFSPC